DW0749 Weather Reports


Display with metric or nautical units.
time (UTC)temp
F
wind
direction
speed
MPH
gust
MPH
rain 1hr
in
rain 24hr
in
rain mn
in
humidity
%
barometer
mb
20190717063905 64 211 0.0 0.0 0.00 0.00 0.00 66 1007.2
20190717063404 64 212 0.0 0.0 0.00 0.00 0.00 66 1007.1
20190717062904 65 216 0.0 0.0 0.00 0.00 0.00 66 1007.1
20190717062410 65 227 0.0 0.0 0.00 0.00 0.00 67 1007.1
20190717061905 65 227 0.0 0.0 0.00 0.00 0.00 66 1007.1
20190717061403 65 227 0.0 3.0 0.00 0.00 0.00 66 1007.1
20190717060903 65 281 0.0 0.0 0.00 0.00 0.00 65 1007.2
20190717060404 65 282 0.0 0.0 0.00 0.00 0.00 65 1007.1
20190717055904 65 288 0.0 0.0 0.00 0.00 0.00 64 1007.0
20190717055404 65 298 0.0 0.0 0.00 0.00 0.00 64 1006.7
20190717054904 65 298 0.0 0.0 0.00 0.00 0.00 63 1006.7
20190717054404 66 298 0.0 0.0 0.00 0.00 0.00 63 1006.8
20190717053904 66 298 0.0 0.0 0.00 0.00 0.00 62 1006.9
20190717053403 66 298 0.0 0.0 0.00 0.00 0.00 62 1007.2
20190717052904 66 298 0.0 0.0 0.00 0.00 0.00 62 1007.3
20190717052403 66 298 0.0 0.0 0.00 0.00 0.00 61 1007.5
20190717051904 66 298 0.0 0.0 0.00 0.00 0.00 61 1007.5
20190717051403 66 298 0.0 0.0 0.00 0.00 0.00 60 1007.5
20190717050904 67 298 0.0 0.0 0.00 0.00 0.00 60 1007.5
20190717050405 67 298 0.0 0.0 0.00 0.00 0.00 59 1007.5
20190717045904 67 298 0.0 0.0 0.00 0.00 0.00 59 1007.5
20190717045403 68 298 0.0 0.0 0.00 0.00 0.00 58 1007.5
20190717044903 67 320 0.0 0.0 0.00 0.00 0.00 59 1007.6
20190717044404 67 320 0.0 0.0 0.00 0.00 0.00 59 1007.6
20190717043904 67 320 0.0 0.0 0.00 0.00 0.00 58 1007.6
20190717043405 68 320 0.0 0.0 0.00 0.00 0.00 58 1007.6
20190717042905 68 320 0.0 0.0 0.00 0.00 0.00 57 1007.6
20190717042404 68 320 0.0 0.0 0.00 0.00 0.00 57 1007.6
20190717041905 68 320 0.0 0.0 0.00 0.00 0.00 57 1007.6
20190717041405 68 320 0.0 0.0 0.00 0.00 0.00 57 1007.5
20190717040905 68 320 0.0 0.0 0.00 0.00 0.00 57 1007.4
20190717040405 69 320 0.0 0.0 0.00 0.00 0.00 56 1007.5
20190717035905 69 320 0.0 0.0 0.00 0.00 0.00 57 1007.5
20190717035405 69 320 0.0 0.0 0.00 0.00 0.00 56 1007.4
20190717034905 69 320 0.0 0.0 0.00 0.00 0.00 56 1007.4
20190717034404 69 320 0.0 0.0 0.00 0.00 0.00 55 1007.4
20190717033904 69 320 0.0 0.0 0.00 0.00 0.00 56 1007.4
20190717033405 70 320 0.0 0.0 0.00 0.00 0.00 55 1007.5
20190717032905 70 320 0.0 0.0 0.00 0.00 0.00 54 1007.6
20190717032404 70 320 0.0 0.0 0.00 0.00 0.00 54 1007.6
20190717031904 70 320 0.0 0.0 0.00 0.00 0.00 53 1007.7
20190717031405 70 320 0.0 0.0 0.00 0.00 0.00 55 1007.7
20190717030905 70 320 0.0 0.0 0.00 0.00 0.00 54 1007.7
20190717030404 71 320 0.0 0.0 0.00 0.00 0.00 55 1007.7
20190717025905 71 320 0.0 0.0 0.00 0.00 0.00 55 1007.7
20190717025404 71 320 0.0 0.0 0.00 0.00 0.00 55 1007.7
20190717024905 72 320 0.0 0.0 0.00 0.00 0.00 56 1007.8
20190717024405 72 320 0.0 0.0 0.00 0.00 0.00 56 1007.8
20190717023904 73 322 0.0 0.0 0.00 0.00 0.00 54 1007.9
20190717023405 73 322 0.0 0.0 0.00 0.00 0.00 55 1007.7
20190717022904 73 323 0.0 0.0 0.00 0.00 0.00 55 1007.7
20190717022404 73 323 0.0 0.0 0.00 0.00 0.00 54 1007.7
20190717021904 73 323 0.0 0.0 0.00 0.00 0.00 56 1007.8
20190717021405 73 323 0.0 0.0 0.00 0.00 0.00 56 1007.8
20190717020905 74 323 0.0 0.0 0.00 0.00 0.00 55 1007.9
20190717020404 74 323 0.0 0.0 0.00 0.00 0.00 54 1008.0
20190717015905 74 294 0.0 0.0 0.00 0.00 0.00 54 1007.8
20190717015404 74 300 0.0 0.0 0.00 0.00 0.00 56 1007.8
20190717014905 74 300 0.0 0.0 0.00 0.00 0.00 55 1007.8
20190717014404 74 300 0.0 0.0 0.00 0.00 0.00 56 1007.8
20190717013905 74 300 0.0 0.0 0.00 0.00 0.00 54 1007.9
20190717013405 75 278 0.0 0.0 0.00 0.00 0.00 55 1007.9
20190717012904 74 278 0.0 0.0 0.00 0.00 0.00 56 1007.9
20190717012405 74 278 0.0 0.0 0.00 0.00 0.00 55 1008.1
20190717011904 75 284 0.0 0.0 0.00 0.00 0.00 55 1007.9
20190717011404 74 286 1.0 3.0 0.00 0.00 0.00 55 1007.9
20190717010905 75 313 0.0 0.0 0.00 0.00 0.00 55 1008.1
20190717010405 74 313 0.0 0.0 0.00 0.00 0.00 55 1008.2
20190717005905 75 313 0.0 0.0 0.00 0.00 0.00 54 1008.3
20190717005404 75 313 0.0 0.0 0.00 0.00 0.00 54 1008.3
20190717004905 75 313 0.0 0.0 0.00 0.00 0.00 55 1008.3
20190717004405 75 302 0.0 3.0 0.00 0.00 0.00 54 1008.3
20190717003904 75 271 0.0 0.0 0.00 0.00 0.00 55 1008.3
20190717003405 75 270 0.0 0.0 0.00 0.00 0.00 56 1008.4
20190717002904 74 269 0.0 0.0 0.00 0.00 0.00 57 1008.4
20190717002404 75 268 0.0 0.0 0.00 0.00 0.00 57 1008.4
20190717001904 74 269 0.0 3.0 0.00 0.00 0.00 57 1008.3
20190717001404 74 296 0.0 0.0 0.00 0.00 0.00 57 1008.4
20190717000904 74 289 0.0 0.0 0.00 0.00 0.00 56 1008.4
20190717000405 74 330 0.0 1.0 0.00 0.00 0.00 57 1008.4
20190716235905 74 223 0.0 5.0 0.00 0.00 0.00 56 1008.4
20190716235405 74 316 0.0 5.0 0.00 0.00 0.00 55 1008.4
20190716234904 74 26 0.0 3.0 0.00 0.00 0.00 55 1008.8
20190716234404 74 77 1.0 3.0 0.00 0.00 0.00 53 1008.8
20190716233905 74 43 0.0 0.0 0.00 0.00 0.00 54 1009.0
20190716233404 76 289 0.0 0.0 0.00 0.00 0.00 53 1009.0
20190716232904 74 290 0.0 1.0 0.00 0.00 0.00 54 1009.1
20190716232405 73 17 0.0 0.0 0.00 0.00 0.00 54 1009.0
20190716231904 74 318 0.0 0.0 0.00 0.00 0.00 54 1009.0
20190716231405 74 318 0.0 0.0 0.00 0.00 0.00 55 1009.0
20190716230905 74 318 0.0 0.0 0.00 0.00 0.00 55 1009.1
20190716230404 74 318 0.0 0.0 0.00 0.00 0.00 54 1009.2
20190716225904 74 318 0.0 0.0 0.00 0.00 0.00 56 1009.2
20190716225404 73 318 0.0 0.0 0.00 0.00 0.00 58 1009.3
20190716224905 73 317 0.0 0.0 0.00 0.00 0.00 56 1009.3
20190716224405 73 317 0.0 0.0 0.00 0.00 0.00 59 1009.5
20190716223904 73 317 0.0 2.0 0.00 0.00 0.00 60 1009.7
20190716223404 73 318 0.0 3.0 0.00 0.00 0.00 60 1009.7
20190716222904 73 315 0.0 0.0 0.00 0.00 0.00 61 1009.7
20190716222404 72 315 0.0 0.0 0.00 0.00 0.00 61 1009.7
20190716221904 73 315 0.0 0.0 0.00 0.00 0.00 62 1009.8
20190716221405 72 319 0.0 0.0 0.00 0.00 0.00 63 1009.8
20190716220904 73 277 0.0 3.0 0.00 0.00 0.00 63 1009.8
20190716220404 73 306 0.0 0.0 0.00 0.00 0.00 62 1009.8
20190716215904 73 267 0.0 0.0 0.00 0.00 0.00 62 1009.8
20190716215404 73 246 0.0 0.0 0.00 0.00 0.00 62 1009.8
20190716214904 73 246 0.0 0.0 0.00 0.00 0.00 61 1009.8
20190716214404 73 246 0.0 0.0 0.00 0.00 0.00 60 1009.8
20190716213904 73 257 0.0 0.0 0.00 0.00 0.00 60 1009.8
20190716213404 75 284 0.0 0.0 0.00 0.00 0.00 57 1009.8
20190716212904 75 299 0.0 0.0 0.00 0.00 0.00 57 1009.8
20190716212405 75 202 0.0 0.0 0.00 0.00 0.00 57 1009.9
20190716211905 76 290 1.0 3.0 0.00 0.00 0.00 53 1009.9
20190716211404 76 284 0.0 0.0 0.00 0.00 0.00 53 1009.9
20190716210905 75 273 0.0 0.0 0.00 0.00 0.00 55 1010.0
20190716210404 75 290 1.0 3.0 0.00 0.00 0.00 55 1009.9
20190716205904 75 203 0.0 2.0 0.00 0.00 0.00 53 1010.1
20190716205404 76 325 0.0 2.0 0.00 0.00 0.00 53 1010.1
20190716204904 75 335 0.0 3.0 0.00 0.00 0.00 54 1010.2
20190716204404 73 136 0.0 5.0 0.00 0.00 0.00 56 1010.2
20190716203904 74 81 0.0 3.0 0.00 0.00 0.00 57 1010.2
20190716203404 74 331 0.0 2.0 0.00 0.00 0.00 57 1010.2
20190716202904 72 33 1.0 5.0 0.00 0.00 0.00 57 1010.2
20190716202404 72 32 0.0 5.0 0.00 0.00 0.00 62 1010.2
20190716201904 71 82 1.0 5.0 0.00 0.00 0.00 63 1010.2
20190716201404 71 7 0.0 3.0 0.00 0.00 0.00 64 1010.3
20190716200903 71 111 0.0 2.0 0.00 0.00 0.00 65 1010.3
20190716200404 71 78 0.0 0.0 0.00 0.00 0.00 64 1010.3
20190716195905 71 79 0.0 2.0 0.00 0.00 0.00 65 1010.3
20190716195404 71 69 0.0 0.0 0.00 0.00 0.00 64 1010.2
20190716194904 71 12 0.0 0.0 0.00 0.00 0.00 65 1010.3
20190716194404 71 335 0.0 1.0 0.00 0.00 0.00 64 1010.3
20190716193904 71 312 0.0 0.0 0.00 0.00 0.00 65 1010.4
20190716193404 71 318 0.0 0.0 0.00 0.00 0.00 63 1010.3
20190716192904 71 332 0.0 0.0 0.00 0.00 0.00 62 1010.3
20190716192405 71 336 0.0 0.0 0.00 0.00 0.00 61 1010.3
20190716191904 72 334 0.0 0.0 0.00 0.00 0.00 59 1010.3
20190716191404 73 31 2.0 6.0 0.00 0.00 0.00 57 1010.3
20190716190904 72 324 0.0 3.0 0.00 0.00 0.00 59 1010.2
20190716190403 72 68 1.0 5.0 0.00 0.00 0.00 59 1010.2
20190716185904 72 26 1.0 7.0 0.00 0.00 0.00 59 1010.3
20190716185404 72 91 1.0 3.0 0.00 0.00 0.00 58 1010.3
20190716184904 74 94 0.0 3.0 0.00 0.00 0.00 55 1010.6
20190716184404 73 31 0.0 0.0 0.00 0.00 0.00 60 1010.6
20190716183904 72 5 0.0 3.0 0.00 0.00 0.00 61 1010.6
20190716183404 71 65 0.0 5.0 0.00 0.00 0.00 62 1010.6
20190716182904 71 38 1.0 5.0 0.00 0.00 0.00 63 1010.7
20190716182404 72 44 0.0 3.0 0.00 0.00 0.00 63 1010.8
20190716181904 73 104 0.0 0.0 0.00 0.00 0.00 63 1010.8
20190716181404 72 338 0.0 0.0 0.00 0.00 0.00 63 1010.8
20190716180904 72 331 0.0 0.0 0.00 0.00 0.00 62 1011.0
20190716180404 69 62 1.0 5.0 0.00 0.00 0.00 66 1010.9
20190716175904 70 47 1.0 3.0 0.00 0.00 0.00 64 1010.7
20190716175403 71 317 1.0 3.0 0.00 0.00 0.00 63 1010.7
20190716174903 71 60 1.0 5.0 0.00 0.00 0.00 63 1010.9
20190716174404 71 350 1.0 3.0 0.00 0.00 0.00 65 1010.9
20190716173904 70 42 2.0 5.0 0.00 0.00 0.00 66 1011.0
20190716173404 71 12 1.0 3.0 0.00 0.00 0.00 67 1011.0
20190716172905 69 78 0.0 0.0 0.00 0.00 0.00 70 1010.9
20190716172404 69 55 3.0 7.0 0.00 0.00 0.00 69 1010.8
20190716171903 69 355 0.0 0.0 0.00 0.00 0.00 70 1011.0
20190716171404 69 334 2.0 3.0 0.00 0.00 0.00 71 1010.9
20190716170903 70 325 0.0 0.0 0.00 0.00 0.00 70 1010.9
20190716170404 69 325 0.0 0.0 0.00 0.00 0.00 73 1011.0
20190716165904 68 325 0.0 0.0 0.00 0.00 0.00 74 1011.0
20190716165404 66 336 0.0 0.0 0.00 0.00 0.00 76 1011.1
20190716164904 67 336 0.0 3.0 0.00 0.00 0.00 74 1010.9
20190716164404 66 346 0.0 0.0 0.00 0.00 0.00 76 1011.0
20190716163903 66 350 0.0 0.0 0.00 0.00 0.00 76 1011.0
20190716163404 65 350 0.0 0.0 0.00 0.00 0.00 78 1011.1
20190716162905 66 316 0.0 0.0 0.00 0.00 0.00 76 1011.1
20190716162404 66 329 0.0 0.0 0.00 0.00 0.00 78 1011.1
20190716161905 64 334 0.0 0.0 0.00 0.00 0.00 79 1011.2
20190716161404 65 315 1.0 3.0 0.00 0.00 0.00 78 1011.2
20190716160905 64 65 0.0 3.0 0.00 0.00 0.00 79 1011.2
20190716160405 64 53 1.0 3.0 0.00 0.00 0.00 79 1011.3
20190716155905 64 42 0.0 0.0 0.00 0.00 0.00 79 1011.3
20190716155405 63 62 0.0 3.0 0.00 0.00 0.00 81 1011.4
20190716154405 63 346 0.0 0.0 0.00 0.00 0.00 82 1011.4
20190716153905 63 348 0.0 0.0 0.00 0.00 0.00 82 1011.4
20190716153405 62 345 0.0 0.0 0.00 0.00 0.00 83 1011.4
20190716152905 62 344 0.0 0.0 0.00 0.00 0.00 82 1011.4
20190716152405 62 19 0.0 0.0 0.00 0.00 0.00 84 1011.3
20190716151904 62 19 0.0 0.0 0.00 0.00 0.00 85 1011.3
20190716151405 61 22 0.0 0.0 0.00 0.00 0.00 85 1011.3
20190716150905 61 22 0.0 0.0 0.00 0.00 0.00 86 1011.3
20190716150405 61 48 0.0 0.0 0.00 0.00 0.00 87 1011.3
20190716145904 60 48 0.0 0.0 0.00 0.00 0.00 88 1011.3
20190716145405 60 48 0.0 0.0 0.00 0.00 0.00 88 1011.3
20190716144904 60 48 0.0 0.0 0.00 0.00 0.00 89 1011.3
20190716144404 60 49 0.0 0.0 0.00 0.00 0.00 89 1011.3
20190716143905 59 292 0.0 0.0 0.00 0.00 0.00 89 1011.3
20190716143404 59 292 0.0 0.0 0.00 0.00 0.00 89 1011.3
20190716142905 59 288 0.0 0.0 0.00 0.00 0.00 90 1011.2
20190716142405 59 288 0.0 0.0 0.00 0.00 0.00 90 1011.1
20190716141904 59 288 0.0 0.0 0.00 0.00 0.00 91 1011.1
20190716141405 58 288 0.0 0.0 0.00 0.00 0.00 91 1011.2
20190716140905 58 288 0.0 0.0 0.00 0.00 0.00 91 1011.2
20190716140404 58 288 0.0 0.0 0.00 0.00 0.00 91 1011.1
20190716135904 58 271 0.0 0.0 0.00 0.00 0.00 91 1011.0
20190716135405 58 271 0.0 0.0 0.00 0.00 0.00 91 1011.0
20190716134904 57 271 0.0 0.0 0.00 0.00 0.00 92 1011.0
20190716134404 57 271 0.0 0.0 0.00 0.00 0.00 91 1011.2
20190716133905 57 271 0.0 0.0 0.00 0.00 0.00 91 1011.2
20190716133404 57 271 0.0 0.0 0.00 0.00 0.00 91 1011.0
20190716132905 57 271 0.0 0.0 0.00 0.00 0.00 91 1011.0
20190716132405 57 271 0.0 0.0 0.00 0.00 0.00 91 1011.0
20190716131904 57 271 0.0 0.0 0.00 0.00 0.00 91 1011.0
20190716131405 57 271 0.0 0.0 0.00 0.00 0.00 91 1010.9
20190716130904 57 271 0.0 0.0 0.00 0.00 0.00 91 1010.9
20190716130404 57 271 0.0 0.0 0.00 0.00 0.00 91 1010.8
20190716125904 57 271 0.0 0.0 0.00 0.00 0.00 91 1010.8
20190716125404 57 271 0.0 0.0 0.00 0.00 0.00 91 1010.8
20190716124904 57 271 0.0 0.0 0.00 0.00 0.00 90 1010.8
20190716124404 57 271 0.0 0.0 0.00 0.00 0.00 90 1010.9
20190716123904 57 271 0.0 0.0 0.00 0.00 0.00 90 1010.9
20190716123405 57 271 0.0 0.0 0.00 0.00 0.00 90 1010.9
20190716122904 57 271 0.0 0.0 0.00 0.00 0.00 90 1010.7
20190716122404 57 271 0.0 0.0 0.00 0.00 0.00 90 1010.8
20190716121904 57 271 0.0 0.0 0.00 0.00 0.00 90 1010.6
20190716121404 57 271 0.0 0.0 0.00 0.00 0.00 90 1010.6
20190716120905 57 271 0.0 0.0 0.00 0.00 0.00 90 1010.6
20190716120404 57 271 0.0 0.0 0.00 0.00 0.00 90 1010.7
20190716115904 57 271 0.0 0.0 0.00 0.00 0.00 90 1010.8
20190716115404 57 271 0.0 0.0 0.00 0.00 0.00 90 1010.8
20190716114904 57 271 0.0 0.0 0.00 0.00 0.00 89 1010.7
20190716114406 57 271 0.0 0.0 0.00 0.00 0.00 90 1010.7
20190716113904 57 271 0.0 0.0 0.00 0.00 0.00 90 1010.8
20190716113404 57 271 0.0 0.0 0.00 0.00 0.00 90 1010.8
20190716112904 57 271 0.0 0.0 0.00 0.00 0.00 90 1010.7
20190716112405 57 271 0.0 0.0 0.00 0.00 0.00 90 1010.7
20190716111904 57 271 0.0 0.0 0.00 0.00 0.00 90 1010.6
20190716111405 57 271 0.0 0.0 0.00 0.00 0.00 89 1010.7
20190716110904 57 271 0.0 0.0 0.00 0.00 0.00 89 1010.6
20190716110405 58 271 0.0 0.0 0.00 0.00 0.00 89 1010.7
20190716105904 58 271 0.0 0.0 0.00 0.00 0.00 89 1010.7
20190716105404 58 271 0.0 0.0 0.00 0.00 0.00 89 1010.7
20190716104904 58 271 0.0 0.0 0.00 0.00 0.00 89 1010.8
20190716104404 58 271 0.0 0.0 0.00 0.00 0.00 88 1010.7
20190716103904 58 271 0.0 0.0 0.00 0.00 0.00 89 1010.7
20190716103405 58 271 0.0 0.0 0.00 0.00 0.00 88 1010.8
20190716102905 58 271 0.0 0.0 0.00 0.00 0.00 89 1010.8
20190716102405 58 271 0.0 0.0 0.00 0.00 0.00 88 1010.8
20190716101905 58 271 0.0 0.0 0.00 0.00 0.00 88 1010.8
20190716101404 58 271 0.0 0.0 0.00 0.00 0.00 88 1010.9
20190716100904 58 271 0.0 0.0 0.00 0.00 0.00 88 1010.9
20190716100404 59 271 0.0 0.0 0.00 0.00 0.00 88 1010.9
20190716095905 59 271 0.0 0.0 0.00 0.00 0.00 87 1010.8
20190716095404 59 271 0.0 0.0 0.00 0.00 0.00 87 1010.7
20190716094904 59 271 0.0 0.0 0.00 0.00 0.00 87 1010.8
20190716094404 59 271 0.0 0.0 0.00 0.00 0.00 87 1010.8
20190716093904 59 271 0.0 0.0 0.00 0.00 0.00 86 1010.8
20190716093405 60 271 0.0 0.0 0.00 0.00 0.00 86 1010.9
20190716092905 60 271 0.0 0.0 0.00 0.00 0.00 85 1010.9
20190716092404 60 271 0.0 0.0 0.00 0.00 0.00 85 1010.9
20190716091904 60 271 0.0 0.0 0.00 0.00 0.00 85 1010.9
20190716091404 60 271 0.0 0.0 0.00 0.00 0.00 85 1010.9
20190716090904 61 271 0.0 0.0 0.00 0.00 0.00 85 1011.0
20190716090404 61 271 0.0 0.0 0.00 0.00 0.00 85 1010.9
20190716085904 60 271 0.0 0.0 0.00 0.00 0.00 86 1010.9
20190716085404 61 271 0.0 0.0 0.00 0.00 0.00 86 1010.9
20190716084904 60 271 0.0 0.0 0.00 0.00 0.00 86 1011.0
20190716084404 60 271 0.0 0.0 0.00 0.00 0.00 87 1011.0
20190716083904 61 271 0.0 0.0 0.00 0.00 0.00 86 1011.0
20190716083404 61 271 0.0 0.0 0.00 0.00 0.00 86 1011.0
20190716082904 61 271 0.0 0.0 0.00 0.00 0.00 86 1011.0
20190716082403 61 271 0.0 0.0 0.00 0.00 0.00 86 1011.2
20190716081904 61 271 0.0 0.0 0.00 0.00 0.00 86 1011.1
20190716081404 61 271 0.0 0.0 0.00 0.00 0.00 86 1011.1
20190716080904 61 271 0.0 0.0 0.00 0.00 0.00 86 1011.2
20190716080404 61 271 0.0 0.0 0.00 0.00 0.00 86 1011.2
20190716075905 61 271 0.0 0.0 0.00 0.00 0.00 86 1011.2
20190716075404 61 271 0.0 0.0 0.00 0.00 0.00 86 1011.3
20190716074904 61 271 0.0 0.0 0.00 0.00 0.00 86 1011.3
20190716074404 61 271 0.0 0.0 0.00 0.00 0.00 86 1011.3
20190716073904 62 271 0.0 0.0 0.00 0.00 0.00 86 1011.3
20190716073404 62 271 0.0 0.0 0.00 0.00 0.00 86 1011.3
20190716072904 62 271 0.0 0.0 0.00 0.00 0.00 86 1011.4
20190716072403 62 271 0.0 0.0 0.00 0.00 0.00 86 1011.2
20190716071903 62 271 0.0 0.0 0.00 0.00 0.00 85 1011.2
20190716071404 62 271 0.0 0.0 0.00 0.00 0.00 85 1011.2
20190716070903 62 271 0.0 0.0 0.00 0.00 0.00 85 1011.2
20190716070403 62 271 0.0 0.0 0.00 0.00 0.00 85 1011.2
20190716065904 62 271 0.0 0.0 0.00 0.00 0.00 84 1011.2
20190716065404 62 271 0.0 0.0 0.00 0.00 0.00 84 1011.2
20190716064904 63 271 0.0 0.0 0.00 0.00 0.00 84 1011.3
20190716064404 63 271 0.0 0.0 0.00 0.00 0.00 84 1011.3